Find EOS-06

NORAD ID: 54361 Int'l Des: 2022-158 Owner: ISRO Country: IN operational
LEOCIRCULARRETROGRADESSO

实时位置

正在加载3D地球...

关于 EOS-06

正在加载描述...

即将过境

Passes for default location (London). Set your location on the main map for personalized predictions.

高度历史

Loading altitude history...

两行轨道根数

1 54361U 22158A 26135.31694421 .00000140 00000-0 50483-4 0 9993
2 54361 98.3514 233.9505 0002215 84.7277 275.4168 14.47020255183086
Epoch: May 15, 2026 • Age: 21 hours

当前状态

高度 757.0 km
速度 7.47 km/s
星下点 -52.72°S, 62.06°W
发射日期 Nov 26, 2022
运行时间 3.4 years
类型 other

技术详情

分类 Payload
质量 1117.00 kg
干质量 950.00 kg
总质量 1117.00 kg
长度 3.90 m
直径 2.00 m
跨度 11.70 m
形状 Box + Hex Box+3 pan
制造商 ISAC/HAL
平台类型 IRS
阶段状态 In Orbit
所有者/国家 ISRO/IN

Most Searched